Regional Weather Roundup
Issued by NWS

Home | Current Version | Previous Version | Text Only | Print | Product List | Glossary On
Versions: 1 2 3 4 5 6 7 8 9 10 11 12 13 14 15 16 17 18 19 20 21 22 23 24 25 26 27 28 29 30 31 32 33 34 35 36 37 38 39 40 41 42 43 44 45 46 47 48 49 50
000
ASHW40 PHFO 301310
RWRHI

WEATHER ROUNDUP FOR HAWAII
NATIONAL WEATHER SERVICE HONOLULU HI
300 AM HST MON MAR 30 2015

THIS IS AN AUTOMATED REPORT THAT HAS NOT BEEN QUALITY CONTROLLED.

NOTE..."FAIR" INDICATES FEW OR NO CLOUDS BELOW 12,000 FEET WITH NO
SIGNIFICANT WEATHER AND/OR OBSTRUCTIONS TO VISIBILITY.

* - THESE SITES REPORT LIMITED FIELDS

HIZ001>004-301400-
KAUAI-NIIHAU-

CITY           SKY/WX    TMP DP  RH WIND       PRES   REMARKS
LIHUE APT      CLOUDY    72  66  81 NE12      30.13F
PORT ALLEN*      N/A     72 N/A N/A E13G18      N/A
POIPU*           N/A     70 N/A N/A NE8G18      N/A
PRINCEVILLE*     N/A     70 N/A N/A MISG        N/A
KOKOLE POINT*  NOT AVBL
MOLOAA DAIRY*  NOT AVBL
WAIMEA HTS*    NOT AVBL
PUU OPAE*      NOT AVBL
PUU LUA*       NOT AVBL
MAKAHA RIDGE*  NOT AVBL
$$

HIZ005>011-301400-
OAHU-

CITY           SKY/WX    TMP DP  RH WIND       PRES   REMARKS
HONOLULU       CLOUDY    71  64  78 NE15      30.09F
KALAELOA       PTCLDY    70  64  81 CALM      30.10F
KANEOHE MCB    RAIN      73  68  84 NE10G18   30.08F
WHEELER FIELD  FAIR      69  63  81 W1        30.10F
BELLOWS*       NOT AVBL
KAHUKU*        NOT AVBL
WHEELER*       NOT AVBL
WAIANAE HARBOR NOT AVBL
DILLINGHAM*      N/A     66  64  94 MISG        N/A
KAHUKU TRN*      N/A     70  66  88 E8G20       N/A
KAWAILOA*        N/A     66  63  88 E12G23      N/A
KII*             N/A     73  68  83 NE18G26     N/A
MAKUA RANGE*     N/A     73  63  68 E7G15       N/A
OAHU FOREST NW NOT AVBL
SCHOFIELD BRK*   N/A     66  63  88 W1          N/A
SCHOFIELD S*   NOT AVBL
WAIANAE VLY*   NOT AVBL
KUAOKALA*      NOT AVBL
HONOULIUULI*   NOT AVBL
MOKUOLOE IS*   NOT AVBL
PALEHUA*       NOT AVBL
WAIAWA PHB*    NOT AVBL
$$

HIZ012>013-301400-
MOLOKAI-

CITY           SKY/WX    TMP DP  RH WIND       PRES   REMARKS
MOLOKAI AIRPT  CLEAR     71  62  73 NE5       30.10F
KALAUPAPA      NOT AVBL
MAKAPULAPAI*   NOT AVBL
MOLOKAI 1*     NOT AVBL
PUU ALII*      NOT AVBL
$$

HIZ016-301400-
KAHOOLAWE-

CITY           SKY/WX    TMP DP  RH WIND       PRES   REMARKS
KAHOOLAWE*     NOT AVBL
HAKIOAWA*      NOT AVBL
HONOKANAIA*      N/A     73  64  73 NE15G28   30.09F
KANELOA*         N/A     72  64  78 MISG      29.32F
KEALIALALO*    NOT AVBL
LUA MAKIKA*    NOT AVBL
$$

HIZ014>015-301400-
LANAI-

CITY           SKY/WX    TMP DP  RH WIND       PRES   REMARKS
LANAI CITY       N/A    N/A N/A N/A MISG        N/A
LANAI 1*       NOT AVBL
$$

HIZ017>028-301400-
MAUI-

CITY           SKY/WX    TMP DP  RH WIND       PRES   REMARKS
KAHULUI          N/A    N/A N/A N/A N6        30.09F
KAPALUA-W MAUI NOT AVBL
HANA AIRPORT   CLOUDY    68  66  94 CALM      30.14S
HANA*          NOT AVBL
HALEAKALA SUMM   N/A     45   1  16 E14         N/A
MAALAEA BAY*   NOT AVBL
HALEAKALA*     NOT AVBL
KAUPO GAP*     NOT AVBL
KULA 1*          N/A    N/A N/A N/A CALM        N/A
$$

HIZ023>026-301400-
BIG ISLAND OF HAWAII COAST AND LOWER SLOPES-

CITY           SKY/WX    TMP DP  RH WIND       PRES   REMARKS
KAILUA KONA    CLEAR     73  64  73 E6        30.05F
HILO           LGT RAIN  67  66  97 S7        30.13F
HONOKAA*       NOT AVBL
KAWAIHAE MWT*  NOT AVBL
KAWAIHAE*        N/A     77 N/A N/A VRB1G12     N/A
SOUTH POINT*   NOT AVBL
UPOLU AIRPORT* NOT AVBL
KAMUELA*       PTSUNNY   61  61 100 NE15      30.16S
HAKALAU*         N/A     45  43  93 S3G12       N/A
KALOKO-HONOKO* NOT AVBL
PALI 2*          N/A     63  55  77 NE9G24      N/A
KEALAKOMO*       N/A     72  64  78 NE13G23     N/A
KAUPULEHU*     NOT AVBL
KAPAPALA*        N/A     57  53  87 N3          N/A
LOWER KAHUKU*  NOT AVBL
PUHE CS*       NOT AVBL
PUHO CS*       NOT AVBL
PTA KEAMUKU*     N/A     54  48  82 CALM        N/A
WAIKOLOA*      NOT AVBL
$$

HIZ027>028-301400-
BIG ISLAND OF HAWAII INTERIOR AND SUMMMITS-

CITY           SKY/WX    TMP DP  RH WIND       PRES   REMARKS
BRADSHAW FIELD CLOUDY    48  46  91 SE9G18    30.34F
MK VISITOR CEN NOT AVBL
MAUNA KEA*       N/A     32  -8  18 S10         N/A  WCI  24
MAUNA LOA*       N/A     37   5  25 MISG        N/A
MAUNA LOA 1*   NOT AVBL
PTA KIPUKA*      N/A     46  45  93 CALM        N/A
PTA RANGE 17*    N/A     52  48  87 E8G16       N/A
PTA WEST*        N/A     57  48  72 E13G18      N/A
NENE CABIN*    NOT AVBL
AHUMOA*        NOT AVBL
PTA PORTABLE*  NOT AVBL
PUU MALI*      NOT AVBL
$$

HIC003-301400-
NORTHWEST ISLANDS-

CITY           SKY/WX    TMP DP  RH WIND       PRES   REMARKS
MIDWAY ISLAND  CLEAR     59  52  77 NE5       30.36F
MIDWAY NOS*    NOT AVBL
FRENCH FRIGATE NOT AVBL
$$

PHZ110>124-180-301400-
BUOY REPORTS

STATION/POSITION TIME  TEMP    WIND        PRES    WAVE   SWELL
                       AIR SEA DIR/SP/G            HT/PER HT/DIR
                 (UTC) (F)     (DEG/KT/KT) (MB)    (FT/S) (FT/D)
BUOY 51001       NOT AVBL
BUOY 51101       1300   70 71   70/ 19/ 23 1021.1F   9/ 7   7/290
BUOY 51100       1300   72 74   70/ 14/ 16 1021.1F
BUOY 51003       1200   76 78   80/ 10/ 14 1018.6F   7/14   7
BUOY 51004       1214   77 77   70/ 17/ 21 1017.1F   8/ 9   5/ 90
BARBERS PT BUOY  NOT AVBL
WAIMEA BAY BUOY  1300      77                N/A     5/15   3/310
KAILUA BAY BUOY  1300      76                N/A     7/ 9   3/ 40
LANAI BUOY       1300      77                N/A     3/14   2/270
BARBERS PT 2     1300      76                N/A     5/14   3/190
PAUWELA MAUI     1300      76                N/A     8/15   5/320
HILO             1300      77                N/A     8/ 9   3/100
KANEOHE BAY BUOY 1300      76                N/A     6/ 8   2/360
HANALEI KAUAI    1300      75                N/A     7/14   5/310
KAHULUI HARBOR   1300           40/  9/ 13   N/A
HONOLULU HARBOR  1300           90/  4/  9   N/A
KILO NALU        NOT AVBL
HILO HARBOR      1300          170/  5/  9   N/A
MOKUOLOE         1300   75 76  100/  8/ 12 1019.6F
NAWILIWILI       1300   72 77   60/ 13/ 19 1019.8F
WHOTS BUOY       NOT AVBL
BUOY 51028       NOT AVBL
$$

......................KEY........................................
  SKY/WX - SKY CONDITIONS/PRESENT WEATHER
  TMP    - TEMPERATURE IN FAHRENHEIT
  DWPT   - DEWPOINT IN FAHRENHEIT
  RH     - RELATIVE HUMIDITY IN PERCENT
  WIND   - DIRECTION AND SPEED /MPH FOR ISLANDS...KTS FOR BUOYS/
  PRES   - MEAN SEA LEVEL PRESSURE IN INCHES OF HG
  VSB    - VISIBILITY IN MILES
  HX     - HEAT INDEX
  WCI    - WIND CHILL INDEX
  VRB    - VARIABLE WIND DIRECTION
  N/A    - NOT AVAILABLE


USA.gov is the U.S. government's official web portal to all federal, state and local government web resources and services.